LY3FF-10 Weather Reports


time (UTC)temp
C
wind
direction
speed
KPH
gust
KPH
rain 1hr
cm
rain 24hr
cm
rain mn
cm
humidity
%
barometer
mb
20260906034507 12 0.0 0.0 0.00 0.00 0.00 89 986.9
20260906033200 12 0.0 0.0 0.00 0.00 0.00 89 986.9
20260906031957 12 0.0 0.0 0.00 0.00 0.00 89 986.8
20260906030625 12 0.0 0.0 0.00 0.00 0.00 89 986.7
20260906025335 12 0.0 0.0 0.00 0.00 0.00 89 986.5
20260906023835 12 0.0 0.0 0.00 0.00 0.00 89 986.4
20260906022408 12 0.0 0.0 0.00 0.00 0.00 87 986.4
20260906021005 12 0.0 0.0 0.00 0.00 0.00 86 986.3
20260906015725 12 0.0 0.0 0.00 0.00 0.00 85 986.2
20260906014440 12 0.0 0.0 0.00 0.00 0.00 85 986.2
20260906012958 12 0.0 0.0 0.00 0.00 0.00 85 986.1
20260906011614 13 0.0 0.0 0.00 0.00 0.00 85 986.2
20260906010250 13 0.0 0.0 0.00 0.00 0.00 85 986.2
20260906005035 13 0.0 0.0 0.00 0.00 0.00 85 986.1
20260906003655 13 0.0 0.0 0.00 0.00 0.00 85 986.1
20260906002200 13 0.0 0.0 0.00 0.00 0.00 85 986.1
20260906000830 13 0.0 0.0 0.00 0.00 0.00 85 986.1
20260905235537 13 0.0 0.0 0.00 0.00 0.00 85 986.0
20260905234130 13 0.0 0.0 0.00 0.00 0.00 85 986.0
20260905232650 13 0.0 0.0 0.00 0.00 0.00 85 986.0
20260905231240 13 0.0 0.0 0.00 0.00 0.00 85 986.0
20260905225850 13 0.0 0.0 0.00 0.00 0.00 85 985.9
20260905224522 13 0.0 0.0 0.00 0.00 0.00 85 986.1
20260905223240 13 0.0 0.0 0.00 0.00 0.00 85 986.0
20260905221945 13 0.0 0.0 0.00 0.00 0.00 85 985.9
20260905220705 13 0.0 0.0 0.00 0.00 0.00 85 986.0
20260905215245 13 0.0 0.0 0.00 0.00 0.00 85 985.9
20260905213930 13 0.0 0.0 0.00 0.00 0.00 84 986.0
20260905212655 13 0.0 0.0 0.00 0.00 0.00 84 986.1
20260905211205 13 0.0 0.0 0.00 0.00 0.00 84 986.1
20260905205725 13 0.0 0.0 0.00 0.00 0.00 84 986.0
20260905204245 13 0.0 0.0 0.00 0.00 0.00 84 986.0
20260905202958 13 0.0 0.0 0.00 0.00 0.00 84 986.0
20260905201655 13 0.0 0.0 0.00 0.00 0.00 85 986.0
20260905200210 13 0.0 0.0 0.00 0.00 0.00 85 986.0
20260905194915 13 0.0 0.0 0.00 0.00 0.00 85 986.0
20260905193520 13 0.0 0.0 0.00 0.00 0.00 85 986.0
20260905192225 13 0.0 0.0 0.00 0.00 0.00 85 986.0
20260905190915 13 0.0 0.0 0.00 0.00 0.00 85 985.9
20260905185605 13 0.0 0.0 0.00 0.00 0.00 85 985.8
20260905184115 14 0.0 0.0 0.00 0.00 0.00 85 985.9
20260905182655 13 0.0 0.0 0.00 0.00 0.00 85 985.9
20260905181348 13 0.0 0.0 0.00 0.00 0.00 87 985.9
20260905175910 13 0.0 0.0 0.00 0.00 0.00 85 985.8
20260905174420 14 0.0 0.0 0.00 0.00 0.00 85 985.6
20260905173201 14 0.0 0.0 0.00 0.00 0.00 85 985.5
20260905171721 14 0.0 0.0 0.00 0.00 0.00 85 985.4
20260905170415 14 0.0 0.0 0.00 0.00 0.00 84 985.3
20260905164930 14 0.0 0.0 0.00 0.00 0.00 84 985.2
20260905163640 14 0.0 0.0 0.00 0.00 0.00 84 985.1
20260905162435 14 0.0 0.0 0.00 0.00 0.00 84 985.1
20260905161220 15 0.0 0.0 0.00 0.00 0.00 84 985.0
20260905155920 15 0.0 0.0 0.00 0.00 0.00 84 984.8
20260905154600 15 0.0 0.0 0.00 0.00 0.00 84 984.7
20260905153355 15 0.0 0.0 0.00 0.00 0.00 84 984.8
20260905151954 15 0.0 0.0 0.00 0.00 0.00 84 984.4
20260905150500 15 0.0 0.0 0.00 0.00 0.00 83 984.4
20260905145054 15 0.0 0.0 0.00 0.00 0.00 81 984.3
20260905143605 15 0.0 0.0 0.00 0.00 0.00 81 984.5
20260905142240 15 0.0 0.0 0.00 0.00 0.00 81 984.4
20260905141020 15 0.0 0.0 0.00 0.00 0.00 81 984.2
20260905135715 15 0.0 0.0 0.00 0.00 0.00 80 984.1
20260905134250 17 0.0 0.0 0.00 0.00 0.00 72 983.6
20260905132850 20 0.0 0.0 0.00 0.00 0.00 69 983.2
20260905131546 18 0.0 0.0 0.00 0.00 0.00 70 983.2
20260905130050 17 0.0 0.0 0.00 0.00 0.00 73 983.0
20260905124755 16 0.0 0.0 0.00 0.00 0.00 75 982.9
20260905123340 16 0.0 0.0 0.00 0.00 0.00 75 983.0
20260905121840 17 0.0 0.0 0.00 0.00 0.00 74 982.9
20260905120525 17 0.0 0.0 0.00 0.00 0.00 72 982.7
20260905115325 19 0.0 0.0 0.00 0.00 0.00 73 982.8
20260905113940 18 0.0 0.0 0.00 0.00 0.00 67 982.5
20260905112625 17 0.0 0.0 0.00 0.00 0.00 73 982.6
20260905111350 17 0.0 0.0 0.00 0.00 0.00 77 982.4
20260905110025 16 0.0 0.0 0.00 0.00 0.00 80 982.6
20260905104613 20 0.0 0.0 0.00 0.00 0.00 97 982.5
20260905103350 20 0.0 0.0 0.00 0.00 0.00 97 982.2
20260905102135 23 0.0 0.0 0.00 0.00 0.00 97 981.8
20260905100715 16 0.0 0.0 0.00 0.00 0.00 97 981.6
20260905095325 16 0.0 0.0 0.00 0.00 0.00 97 981.5
20260905094100 16 0.0 0.0 0.00 0.00 0.00 97 981.4
20260905092600 16 0.0 0.0 0.00 0.00 0.00 97 981.2
20260905091320 16 0.0 0.0 0.00 0.00 0.00 97 981.2
20260905085830 16 0.0 0.0 0.00 0.00 0.00 97 981.1
20260905084520 16 0.0 0.0 0.00 0.00 0.00 97 980.9
20260905083320 16 0.0 0.0 0.00 0.00 0.00 97 980.6
20260905082035 16 0.0 0.0 0.00 0.00 0.00 97 980.4
20260905080715 16 0.0 0.0 0.00 0.00 0.00 97 980.0
20260905075320 16 0.0 0.0 0.00 0.00 0.00 97 980.0
20260905073910 16 0.0 0.0 0.00 0.00 0.00 97 979.7
20260905072610 16 0.0 0.0 0.00 0.00 0.00 97 979.7
20260905071340 16 0.0 0.0 0.00 0.00 0.00 97 979.3
20260905065855 16 0.0 0.0 0.00 0.00 0.00 97 979.3
20260905064525 16 0.0 0.0 0.00 0.00 0.00 97 979.1
20260905063200 16 0.0 0.0 0.00 0.00 0.00 97 978.9
20260905061705 16 0.0 0.0 0.00 0.00 0.00 97 979.0
20260905060342 16 0.0 0.0 0.00 0.00 0.00 97 978.6
20260905055030 16 0.0 0.0 0.00 0.00 0.00 97 978.7
20260905053755 16 0.0 0.0 0.00 0.00 0.00 97 978.7
20260905052405 16 0.0 0.0 0.00 0.00 0.00 97 978.4
20260905051010 16 0.0 0.0 0.00 0.00 0.00 97 978.3
20260905045525 16 0.0 0.0 0.00 0.00 0.00 97 978.5
20260905044040 16 0.0 0.0 0.00 0.00 0.00 97 978.4
20260905042840 16 0.0 0.0 0.00 0.00 0.00 97 978.4
20260905041522 16 0.0 0.0 0.00 0.00 0.00 97 978.5
20260905040305 16 0.0 0.0 0.00 0.00 0.00 97 978.5